Weather History for KSTF - May, 2013

Change the Weather History Date:

Thursday, May 2, 2013

  Actual Average Record
Temperature  
Mean Temperature 65 °F -  
Max Temperature 71 °F 79 °F 86 °F (2012)
Min Temperature 59 °F 56 °F 42 °F (2014)
Growing Degree Days 15 (Base 50)    
Moisture  
Dew Point 60 °F    
Average Humidity 84    
Maximum Humidity 94    
Minimum Humidity 69    
Precipitation  
Precipitation 0.04 in - - ()
Sea Level Pressure  
Sea Level Pressure 30.03 in    
Wind  
Wind Speed 7 mph (East)    
Max Wind Speed 16 mph    
Max Gust Speed 21 mph    
Visibility 10 miles    
Events Rain    
Averages and records for this station are not official NWS values.
T = Trace of Precipitation, MM = Missing Value Source: NWS Daily Summary

Daily Weather History Graph

Daily Weather History Graph

Search for Another Location

Airport or City:

Trip Planner

Search our weather history database for the weather conditions in past years. The results will help you decide how hot, cold, wet, or windy it might be!

Date:

Astronomy

May. 02, 2013 Rise Set
Actual Time 6:05 AM CDT 7:39 PM CDT
Civil Twilight 5:39 AM CDT 8:05 PM CDT
Nautical Twilight 5:07 AM CDT 8:37 PM CDT
Astronomical Twilight 4:34 AM CDT 9:11 PM CDT
Moon 1:31 AM CDT (5/2) 12:49 PM CDT (5/2)
Length of Visible Light 14h 26m
Length of Day
13h 33m
Waning Gibbous, 47% of the Moon is Illuminated
May 2
Waning Gibbous
May 9
New
May 17
First Quarter
May 24
Full
May 31
Last Quarter

Hourly Weather History & Observations

Time (CDT) Temp. Dew Point Humidity Pressure Visibility Wind Dir Wind Speed Gust Speed Precip Events Conditions
12:15 AM 62.6 °F 59.0 °F 88% 30.03 in 10.0 mi East 8.1 mph - N/A   Light Drizzle
12:35 AM 62.6 °F 59.0 °F 88% 30.03 in 10.0 mi East 5.8 mph - N/A   Light Drizzle
12:55 AM 62.6 °F 59.0 °F 88% 30.03 in 10.0 mi East 6.9 mph - N/A   Overcast
1:15 AM 62.6 °F 59.0 °F 88% 30.02 in 10.0 mi East 8.1 mph - N/A Rain Light Rain
1:35 AM 62.6 °F 59.0 °F 88% 30.01 in 10.0 mi East 5.8 mph - N/A   Overcast
1:55 AM 62.6 °F 59.0 °F 88% 30.00 in 10.0 mi East 6.9 mph - N/A   Overcast
2:15 AM 62.6 °F 59.0 °F 88% 30.01 in 10.0 mi East 5.8 mph - N/A   Overcast
2:35 AM 62.6 °F 57.2 °F 82% 30.01 in 10.0 mi East 5.8 mph - N/A   Overcast
2:55 AM 62.6 °F 57.2 °F 82% 30.01 in 10.0 mi East 5.8 mph - N/A   Overcast
3:15 AM 62.6 °F 57.2 °F 82% 30.01 in 10.0 mi East 6.9 mph - N/A   Overcast
3:35 AM 60.8 °F 57.2 °F 88% 30.01 in 7.0 mi East 8.1 mph - 0.03 in Rain Light Rain
3:55 AM 60.8 °F 57.2 °F 88% 30.01 in 10.0 mi East 6.9 mph - 0.03 in   Overcast
4:15 AM 59.0 °F 57.2 °F 94% 30.01 in 10.0 mi East 5.8 mph - N/A   Overcast
4:35 AM 59.0 °F 57.2 °F 94% 30.01 in 10.0 mi East 6.9 mph - N/A   Overcast
4:55 AM 59.0 °F 57.2 °F 94% 30.01 in 10.0 mi East 4.6 mph - N/A   Mostly Cloudy
5:15 AM 59.0 °F 57.2 °F 94% 30.01 in 10.0 mi East 5.8 mph - N/A   Scattered Clouds
5:35 AM 59.0 °F 55.4 °F 88% 30.02 in 10.0 mi East 3.5 mph - N/A   Scattered Clouds
5:55 AM 59.0 °F 55.4 °F 88% 30.03 in 10.0 mi East 4.6 mph - N/A   Mostly Cloudy
6:15 AM 59.0 °F 55.4 °F 88% 30.03 in 10.0 mi East 5.8 mph - N/A   Overcast
6:35 AM 60.8 °F 57.2 °F 88% 30.04 in 10.0 mi East 6.9 mph - N/A   Overcast
6:55 AM 60.8 °F 57.2 °F 88% 30.04 in 10.0 mi East 4.6 mph - N/A   Overcast
7:15 AM 60.8 °F 57.2 °F 88% 30.05 in 10.0 mi East 6.9 mph - N/A   Overcast
7:35 AM 62.6 °F 59.0 °F 88% 30.04 in 10.0 mi ENE 6.9 mph - N/A   Overcast
7:55 AM 62.6 °F 59.0 °F 88% 30.05 in 10.0 mi East 8.1 mph - N/A   Overcast
8:15 AM 62.6 °F 59.0 °F 88% 30.06 in 10.0 mi East 8.1 mph - N/A   Overcast
8:35 AM 62.6 °F 59.0 °F 88% 30.06 in 10.0 mi East 8.1 mph - N/A   Overcast
8:55 AM 62.6 °F 59.0 °F 88% 30.06 in 10.0 mi East 8.1 mph - N/A   Overcast
9:15 AM 62.6 °F 59.0 °F 88% 30.06 in 10.0 mi East 8.1 mph - N/A   Overcast
9:35 AM 64.4 °F 59.0 °F 83% 30.07 in 10.0 mi East 10.4 mph - N/A   Overcast
9:55 AM 64.4 °F 59.0 °F 83% 30.07 in 10.0 mi ESE 6.9 mph - N/A   Overcast
10:15 AM 64.4 °F 59.0 °F 83% 30.07 in 10.0 mi ESE 9.2 mph - N/A   Overcast
10:35 AM 64.4 °F 59.0 °F 83% 30.07 in 10.0 mi ESE 8.1 mph - N/A   Overcast
10:55 AM 66.2 °F 60.8 °F 83% 30.07 in 10.0 mi ESE 9.2 mph - N/A   Overcast
11:15 AM 66.2 °F 60.8 °F 83% 30.07 in 10.0 mi East 8.1 mph 18.4 mph N/A   Overcast
11:35 AM 66.2 °F 60.8 °F 83% 30.07 in 10.0 mi East 11.5 mph 17.3 mph N/A   Overcast
11:55 AM 68.0 °F 60.8 °F 78% 30.06 in 10.0 mi East 8.1 mph - N/A   Overcast
12:15 PM 68.0 °F 60.8 °F 78% 30.06 in 10.0 mi East 5.8 mph - N/A   Overcast
12:35 PM 68.0 °F 60.8 °F 78% 30.05 in 10.0 mi East 6.9 mph - N/A   Overcast
12:55 PM 68.0 °F 60.8 °F 78% 30.04 in 10.0 mi East 4.6 mph - N/A   Overcast
1:15 PM 69.8 °F 60.8 °F 73% 30.04 in 10.0 mi East 6.9 mph - N/A   Overcast
1:35 PM 69.8 °F 62.6 °F 78% 30.04 in 10.0 mi East 5.8 mph - N/A   Overcast
1:55 PM 71.6 °F 60.8 °F 69% 30.04 in 10.0 mi East 11.5 mph - N/A   Overcast
2:15 PM 71.6 °F 60.8 °F 69% 30.03 in 10.0 mi East 6.9 mph - N/A   Overcast
2:35 PM 71.6 °F 60.8 °F 69% 30.03 in 10.0 mi ENE 6.9 mph - N/A   Overcast
2:55 PM 69.8 °F 60.8 °F 73% 30.02 in 10.0 mi East 6.9 mph 16.1 mph N/A   Overcast
3:15 PM 71.6 °F 60.8 °F 69% 30.01 in 10.0 mi East 9.2 mph - N/A   Overcast
3:35 PM 71.6 °F 60.8 °F 69% 30.01 in 10.0 mi East 5.8 mph - N/A   Overcast
3:55 PM 71.6 °F 60.8 °F 69% 30.01 in 10.0 mi East 6.9 mph - N/A   Overcast
4:15 PM 71.6 °F 60.8 °F 69% 30.01 in 10.0 mi East 9.2 mph - N/A   Overcast
4:35 PM 71.6 °F 60.8 °F 69% 30.01 in 10.0 mi East 10.4 mph 16.1 mph N/A   Overcast
4:55 PM 71.6 °F 62.6 °F 73% 30.01 in 10.0 mi East 16.1 mph - N/A   Overcast
5:15 PM 68.0 °F 62.6 °F 83% 30.01 in 5.0 mi East 9.2 mph 20.7 mph 0.01 in Rain Rain
5:35 PM 66.2 °F 62.6 °F 88% 30.02 in 10.0 mi East 6.9 mph - 0.01 in Rain Light Rain
5:55 PM 66.2 °F 62.6 °F 88% 30.01 in 10.0 mi East 5.8 mph - 0.01 in   Mostly Cloudy
6:15 PM 66.2 °F 62.6 °F 88% 30.01 in 10.0 mi East 6.9 mph - N/A   Mostly Cloudy
6:35 PM 68.0 °F 62.6 °F 83% 30.01 in 10.0 mi East 6.9 mph - N/A   Mostly Cloudy
6:55 PM 68.0 °F 62.6 °F 83% 30.01 in 10.0 mi East 3.5 mph - N/A   Overcast
7:15 PM 66.2 °F 62.6 °F 88% 30.01 in 10.0 mi East 5.8 mph - N/A   Overcast
7:35 PM 68.0 °F 62.6 °F 83% 30.01 in 10.0 mi East 3.5 mph - N/A   Overcast
7:55 PM 66.2 °F 62.6 °F 88% 30.02 in 10.0 mi East 4.6 mph - N/A   Overcast
8:15 PM 66.2 °F 62.6 °F 88% 30.02 in 10.0 mi East 5.8 mph - N/A   Overcast
8:35 PM 66.2 °F 60.8 °F 83% 30.02 in 10.0 mi East 5.8 mph - N/A   Mostly Cloudy
8:55 PM 64.4 °F 60.8 °F 88% 30.03 in 10.0 mi East 4.6 mph - N/A   Mostly Cloudy
9:15 PM 64.4 °F 60.8 °F 88% 30.03 in 10.0 mi ENE 3.5 mph - N/A   Mostly Cloudy
9:35 PM 64.4 °F 60.8 °F 88% 30.03 in 10.0 mi ENE 3.5 mph - N/A   Overcast
9:55 PM 64.4 °F 60.8 °F 88% 30.03 in 10.0 mi East 5.8 mph - N/A   Overcast
10:15 PM 64.4 °F 60.8 °F 88% 30.03 in 10.0 mi East 3.5 mph - N/A   Overcast
10:35 PM 64.4 °F 60.8 °F 88% 30.02 in 10.0 mi East 5.8 mph - N/A   Mostly Cloudy
10:55 PM 64.4 °F 60.8 °F 88% 30.02 in 10.0 mi East 5.8 mph - N/A   Scattered Clouds
11:15 PM 64.4 °F 60.8 °F 88% 30.01 in 10.0 mi East 3.5 mph - N/A   Scattered Clouds
11:35 PM 62.6 °F 60.8 °F 94% 30.01 in 10.0 mi East 3.5 mph - N/A   Clear
11:55 PM 62.6 °F 59.0 °F 88% 30.01 in 10.0 mi East 3.5 mph - N/A   Clear